Wind_Speed
40 42 40 37 36 35 34 34 33 32 30 29 29 29 29 27 25 23 22 23 24 24 22 21 20 20 20 21 21 20 20 19 19 18 17 16 16 16 15 14 15 15 14 14 14 14 15 17 18 18 16 15 15 15 15 15 15 15 14 14 14 13 13 12 9 7 12 20 20 16 16 15 10 7 5 3 3 3 2 3 2 1 1 1 1
40 41 40 39 37 36 35 34 33 32 30 30 30 29 29 28 25 23 24 25 25 24 23 22 21 21 22 22 22 21 20 20 20 19 17 17 16 15 14 15 15 15 15 16 15 15 16 18 20 20 19 19 19 18 18 17 17 16 16 14 13 13 13 13 12 8 9 17 20 19 17 14 10 8 7 5 5 5 3 5 4 3 3 3 3
39 39 39 40 39 37 35 34 32 31 30 30 30 29 28 28 27 26 26 26 25 25 24 23 23 23 23 23 23 22 22 21 21 20 19 17 16 15 15 15 15 15 16 16 16 16 18 20 22 22 21 21 22 21 21 20 20 20 19 18 15 14 14 14 14 11 9 14 17 17 17 14 10 9 8 7 6 6 6 6 4 4 5 6 6
36 37 38 39 39 37 35 34 32 31 31 30 30 29 27 27 27 28 28 27 27 26 25 24 24 23 23 23 23 23 22 22 21 20 19 18 16 15 15 15 15 15 15 15 16 16 17 18 20 21 21 22 23 23 23 23 23 22 22 21 18 17 16 16 16 14 11 13 16 15 16 15 11 9 9 9 8 8 7 6 5 6 7 7 7
34 37 38 37 37 36 35 34 32 31 31 31 30 28 27 27 27 27 27 28 27 26 25 24 23 23 24 23 23 23 22 21 21 20 19 18 17 16 15 15 15 14 14 14 16 18 19 20 21 21 21 22 24 25 25 25 24 24 24 23 20 18 18 18 17 15 14 14 16 17 16 15 12 10 10 10 10 10 9 8 8 8 8 7 7
33 36 37 37 37 37 36 35 33 32 32 30 29 28 27 27 27 26 27 27 26 25 24 24 24 24 24 23 23 23 22 22 22 20 18 17 16 16 15 15 15 15 17 19 21 23 24 25 25 24 23 24 26 26 26 25 25 24 25 24 22 20 19 19 18 17 16 14 15 16 16 14 12 10 10 9 10 11 12 11 10 8 7 7 8
33 35 37 38 38 37 37 35 34 33 32 30 29 27 27 26 26 26 26 25 24 23 22 22 23 24 24 23 23 23 23 23 21 18 17 16 16 16 16 15 16 17 18 21 23 24 25 25 24 24 25 27 28 28 26 25 25 25 26 26 24 23 21 19 18 18 17 16 15 16 15 15 13 11 10 9 9 10 10 10 9 9 8 8 9
32 34 36 37 38 38 37 35 33 32 30 29 28 27 26 26 25 25 24 23 23 22 21 22 23 23 24 23 23 23 23 20 17 17 17 17 16 17 16 16 16 16 16 18 20 22 22 22 22 23 25 27 29 29 28 27 26 25 26 26 26 25 24 21 18 17 17 16 16 16 15 15 14 13 12 11 9 8 9 9 10 11 11 11 9
31 33 36 38 39 38 35 33 32 30 28 27 27 26 26 25 24 24 23 23 23 23 23 23 23 23 24 24 24 24 22 18 17 18 18 18 18 18 17 17 17 17 18 19 20 20 20 21 22 23 25 28 29 29 29 28 27 27 26 26 26 26 25 22 19 18 17 16 15 15 15 14 14 12 12 11 9 9 10 9 9 11 12 12 12
31 33 36 38 38 35 32 31 30 29 27 27 26 26 25 24 23 23 23 23 23 23 23 23 23 24 24 24 25 25 23 23 22 20 20 21 21 20 19 19 19 19 20 20 21 22 22 23 24 25 27 28 29 28 28 27 27 27 27 25 25 26 27 24 19 18 18 16 15 15 14 14 14 13 12 11 10 9 9 8 9 11 10 11 14
32 34 36 37 36 33 30 30 30 28 27 27 25 25 24 23 22 22 22 23 23 23 23 23 23 24 24 25 25 24 25 27 24 22 21 22 23 22 22 21 20 21 22 22 23 25 24 24 25 26 27 28 27 27 27 26 26 26 26 25 24 24 26 25 24 21 19 17 15 16 16 15 15 14 13 12 10 9 10 11 12 12 9 7 10
31 34 35 34 32 31 31 30 29 28 27 26 25 24 23 22 23 23 22 22 22 22 22 23 24 24 24 25 25 24 26 25 21 21 22 21 22 23 23 22 22 22 22 22 24 26 26 26 26 26 26 26 25 25 25 25 25 25 25 26 26 26 25 26 26 25 24 21 18 17 17 16 17 18 16 14 13 13 13 13 13 13 12 11 11
31 32 33 32 31 31 31 30 29 28 27 26 25 24 23 23 24 24 23 22 21 22 22 23 24 24 24 25 25 25 27 24 20 20 21 21 21 22 22 22 22 21 20 21 23 24 24 25 25 24 22 21 21 21 21 22 23 24 24 24 25 26 28 28 28 27 26 25 23 23 23 22 21 23 23 20 19 17 16 15 14 13 14 14 13
29 29 30 31 31 31 30 30 29 28 27 26 24 23 24 24 24 24 23 21 21 22 22 23 23 24 24 24 24 26 27 24 21 21 21 21 21 22 22 22 22 21 21 22 22 23 22 22 21 19 17 16 18 19 20 21 22 23 23 24 24 25 26 28 30 29 28 27 26 27 28 27 26 28 27 25 24 22 19 19 19 17 17 18 18
28 27 29 30 31 30 30 29 29 28 26 25 25 24 24 24 24 23 22 21 22 22 22 22 23 23 23 23 24 26 27 25 22 22 22 22 22 22 22 22 22 22 22 23 24 25 23 19 17 15 14 15 16 17 19 20 21 22 23 24 26 27 27 27 28 28 28 29 30 29 28 28 28 28 27 26 26 25 24 24 24 23 23 23 22
28 28 29 30 30 30 30 29 29 28 26 25 25 25 26 25 24 22 21 21 21 21 22 22 23 23 23 23 24 26 27 24 22 22 22 21 21 21 21 21 21 21 22 24 25 23 19 16 13 13 14 14 13 14 15 16 18 20 22 23 25 27 30 31 30 29 28 28 29 30 30 29 28 27 26 25 25 25 25 26 25 24 23 21 19
29 29 29 30 29 30 29 29 29 28 26 26 26 27 26 25 24 22 21 19 19 19 21 21 22 22 22 22 23 25 26 23 19 20 20 20 20 19 19 19 19 19 22 23 21 16 14 13 11 11 13 13 11 11 12 15 18 18 19 21 22 24 27 28 28 30 31 29 28 28 28 27 26 25 25 24 24 24 24 23 22 22 21 17 15
30 28 28 29 29 29 29 29 29 28 27 27 28 27 26 24 23 21 21 20 18 18 19 19 19 20 21 22 22 23 24 20 16 17 18 18 18 19 18 18 18 19 19 17 14 13 13 12 11 11 13 13 11 10 12 18 21 21 20 20 22 24 25 23 22 25 28 28 29 30 29 29 28 27 26 25 25 25 26 26 24 23 21 17 15
31 29 29 28 28 28 29 30 30 29 28 28 27 27 25 23 22 20 19 19 18 17 18 18 18 19 20 19 19 19 20 18 15 16 16 17 17 17 17 17 17 16 14 12 12 13 14 13 13 13 13 13 13 13 14 18 22 25 25 23 24 27 25 22 21 22 22 24 27 29 30 31 30 29 29 28 27 27 27 29 29 26 22 18 17
33 32 29 26 26 29 31 31 30 29 28 27 26 25 24 22 20 19 18 17 17 17 17 17 16 17 17 17 17 17 18 18 16 14 15 16 16 15 16 16 15 12 10 9 10 12 14 15 17 17 16 15 15 16 16 17 20 23 26 27 29 29 26 23 23 23 22 22 23 24 27 30 30 29 29 28 28 28 27 28 30 29 24 19 17
34 32 28 25 26 30 32 32 30 28 28 26 24 23 23 21 20 18 17 17 16 16 15 14 14 16 17 17 18 18 17 17 15 13 13 15 15 16 16 15 11 7 8 9 10 12 13 14 16 18 20 19 18 18 19 19 19 19 22 26 27 24 22 23 23 22 22 22 22 22 23 25 27 28 29 29 30 31 32 31 30 31 28 22 18
33 31 27 25 26 29 31 31 29 28 26 25 23 22 22 21 20 18 17 16 16 15 14 14 15 17 18 17 18 17 15 14 14 12 11 12 13 15 15 12 7 7 9 9 10 12 13 13 13 14 16 17 18 18 18 18 19 19 20 21 21 21 22 24 23 22 23 23 22 22 23 23 24 25 26 29 31 33 35 35 33 31 31 28 24
33 29 25 24 25 28 30 29 28 27 26 25 24 22 21 21 19 18 16 16 15 15 15 14 15 17 17 17 17 15 12 11 11 10 8 8 10 11 11 8 7 9 10 11 12 12 13 14 13 13 13 15 16 17 18 19 19 20 20 20 19 17 17 18 18 20 24 24 23 23 23 23 22 23 24 26 28 30 32 34 34 33 33 33 32
32 27 24 24 25 26 27 27 27 27 25 24 23 22 21 20 18 17 16 15 15 15 14 13 12 13 15 15 15 12 9 8 9 7 5 6 7 8 9 9 10 11 12 13 13 13 14 15 15 15 15 16 17 16 15 15 13 12 12 11 10 9 8 8 9 10 14 19 22 24 25 23 23 24 26 26 25 25 26 29 31 33 35 35 34
31 26 24 24 23 23 24 25 25 25 25 24 24 24 22 20 18 17 16 15 15 14 12 10 10 10 11 13 13 9 5 6 9 7 5 6 7 8 10 12 13 13 13 14 13 13 15 15 15 14 13 12 11 10 9 9 8 8 9 10 10 11 11 12 12 9 8 10 14 18 21 22 23 24 26 25 23 22 23 24 26 28 31 32 33
31 27 24 22 21 21 22 23 23 23 24 24 24 24 22 21 19 17 16 16 16 14 12 9 8 9 10 13 14 8 3 6 7 6 6 7 10 12 12 12 12 13 13 14 13 13 13 12 12 11 8 6 7 8 9 11 12 12 14 14 15 15 15 16 16 14 12 11 13 15 16 19 21 24 24 23 23 23 23 23 22 23 25 26 28
32 27 24 21 19 20 22 23 23 23 23 24 23 22 21 20 19 18 17 17 16 14 12 9 7 7 9 12 11 6 4 5 6 6 8 10 11 11 11 11 11 12 12 13 13 14 13 12 12 12 11 10 10 11 12 13 15 16 16 15 15 15 15 14 15 14 14 13 15 17 17 17 19 22 23 23 24 24 23 22 21 21 21 21 19
32 28 24 20 18 20 23 24 23 23 24 24 24 23 22 21 21 20 19 18 18 17 15 13 11 10 12 12 9 5 6 7 7 8 9 8 7 7 9 10 11 11 13 15 15 13 11 10 10 10 11 12 12 13 14 14 14 14 14 13 12 12 11 10 9 10 11 12 14 16 17 16 16 19 21 22 23 23 21 21 22 21 18 15 14
31 27 22 17 18 21 22 23 24 24 24 24 24 23 22 21 21 20 19 18 18 18 16 16 15 14 14 13 9 8 9 8 7 7 6 6 8 10 10 11 12 11 11 11 11 9 8 7 7 8 8 9 11 11 11 10 10 9 9 9 9 8 7 7 7 8 9 10 10 11 12 13 14 15 17 20 23 23 21 21 23 21 16 14 14
31 26 18 15 17 19 20 21 22 24 24 23 22 21 20 18 17 17 16 16 17 17 16 15 14 13 14 14 12 11 10 7 5 6 7 8 9 7 6 7 7 4 6 7 5 4 5 6 7 7 7 7 7 6 6 6 6 5 5 5 5 5 5 5 5 6 7 7 7 7 8 9 11 12 13 16 21 23 22 22 23 22 17 15 15
30 25 18 16 18 19 19 21 23 23 23 22 21 18 16 16 16 15 13 11 12 15 16 15 14 14 16 18 15 11 9 7 6 7 8 8 5 4 5 5 1 4 3 3 5 6 7 7 6 6 5 4 3 2 3 3 3 4 3 2 2 3 3 4 4 5 5 5 5 6 7 8 8 9 11 12 14 18 21 23 23 22 20 17 15
30 26 21 17 17 17 18 21 22 22 21 19 19 17 15 13 13 15 14 12 12 13 14 15 16 18 19 19 13 8 5 6 6 7 7 4 2 3 3 1 3 2 6 9 9 6 6 6 5 5 4 3 2 1 1 2 2 3 4 3 2 2 2 3 3 4 3 3 4 6 6 7 7 8 9 11 11 11 16 20 21 21 20 18 17
32 28 23 16 14 16 18 20 22 22 21 20 19 18 16 14 11 11 14 14 14 14 11 7 7 8 8 7 7 4 2 4 6 5 3 1 2 3 1 3 1 6 9 8 6 5 5 5 5 4 4 3 3 1 0 1 2 3 3 4 4 4 4 3 2 2 2 3 5 6 6 6 7 7 8 9 9 9 10 14 19 21 18 16 17
33 28 22 15 14 16 18 20 22 22 21 20 19 19 19 17 12 10 11 12 13 13 10 4 2 3 5 5 4 1 3 5 4 2 1 1 2 1 2 2 4 7 7 4 3 5 5 4 4 3 3 3 2 2 1 1 2 2 3 3 4 4 4 3 2 2 3 4 5 5 5 6 6 7 8 8 8 8 9 8 11 16 17 17 16
32 27 21 15 13 14 15 18 20 21 20 20 19 19 18 16 13 12 12 13 12 13 12 9 6 4 4 4 3 2 5 6 4 1 2 1 2 3 6 7 7 5 3 1 3 5 5 4 4 3 2 2 2 2 2 3 3 3 3 4 4 4 4 4 3 3 4 4 4 4 5 6 6 6 7 8 8 7 7 7 7 9 12 15 16
31 26 19 12 12 13 14 15 17 19 19 19 18 18 16 15 14 13 13 12 12 13 13 12 9 7 6 5 4 2 3 3 3 4 3 1 3 4 7 8 5 2 2 3 4 4 4 4 4 3 3 2 2 2 3 4 4 4 4 5 4 5 6 6 6 5 5 4 4 4 5 5 6 6 7 7 7 7 6 6 8 8 7 7 10
30 25 18 11 10 12 13 13 14 15 16 16 15 15 15 14 14 13 12 11 11 11 12 11 9 8 8 8 9 8 4 4 6 5 2 4 5 3 3 5 5 5 5 5 5 5 5 5 4 4 4 3 2 3 3 4 5 5 4 4 4 5 6 6 6 5 5 5 4 5 5 5 5 6 6 7 7 7 6 6 7 8 8 7 6
28 23 16 10 9 10 12 12 12 13 13 12 13 14 14 14 14 13 12 11 10 10 10 9 8 8 9 9 11 12 10 7 5 4 4 5 4 0 4 6 6 7 7 6 6 5 5 5 5 4 4 3 3 3 4 4 5 5 5 5 5 6 5 5 6 6 6 6 6 6 5 5 5 5 5 6 7 7 7 7 7 7 7 7 6
27 21 14 8 7 9 11 12 12 12 11 11 12 13 14 14 14 13 12 11 11 10 10 10 9 8 9 9 9 10 11 11 10 8 5 3 1 3 5 7 7 7 7 7 6 6 5 5 5 4 3 3 3 3 4 4 5 5 5 6 6 7 7 8 9 9 9 9 8 8 7 7 6 5 5 5 6 6 7 7 7 6 7 6 6
26 19 11 6 6 7 10 11 12 11 11 11 12 13 14 14 15 14 12 11 11 10 10 11 9 7 8 8 7 7 8 9 9 8 6 5 5 5 6 6 7 7 7 7 6 6 5 5 4 4 3 2 2 3 3 4 5 5 6 6 7 8 9 10 10 11 11 11 10 10 10 9 8 7 6 6 5 6 7 8 8 8 8 7 7
25 17 9 5 5 6 8 10 10 10 9 10 11 13 13 13 13 13 12 11 11 10 10 10 8 7 7 7 6 5 5 6 7 8 7 6 6 6 6 6 6 6 6 6 5 5 5 4 4 3 2 2 2 3 3 3 4 5 6 7 7 8 9 10 11 11 12 12 12 12 12 11 11 10 9 8 7 6 7 8 8 9 9 9 8
24 16 10 6 4 4 6 8 8 8 7 7 8 10 11 11 11 12 13 12 12 11 11 10 8 7 7 7 7 8 7 5 5 7 7 6 6 6 5 5 5 5 5 5 4 4 3 3 2 2 2 2 2 2 2 3 4 5 6 7 8 9 9 10 11 12 13 13 14 14 13 13 12 11 10 9 8 8 8 8 8 9 9 9 9
23 17 10 6 4 3 4 5 5 6 7 6 6 7 8 9 11 12 12 13 12 12 12 11 9 8 8 7 7 10 10 6 3 5 5 5 5 5 4 4 4 4 4 4 4 3 3 2 2 1 1 1 1 1 2 3 4 5 6 7 7 8 9 10 10 11 13 13 14 14 14 14 13 12 12 10 9 9 9 8 8 8 8 9 9
22 18 12 7 5 3 3 4 4 5 6 6 6 6 7 8 10 10 11 12 12 12 12 11 9 9 10 8 7 10 9 6 3 3 4 5 5 4 4 3 3 3 3 3 2 2 2 2 1 1 1 1 1 1 2 3 4 5 6 7 7 8 8 9 10 11 12 13 14 14 14 15 14 14 13 12 11 11 10 9 9 9 9 10 10
23 19 14 9 7 5 4 5 5 6 6 6 6 6 6 7 8 9 9 10 10 10 11 11 9 10 11 10 9 9 7 6 5 5 5 5 4 4 3 3 3 3 3 2 2 2 2 2 2 2 2 2 2 2 2 2 3 5 6 7 7 8 8 8 9 10 11 12 13 13 14 14 15 14 14 13 13 12 12 11 10 9 10 10 10
23 19 15 11 9 8 7 6 7 7 6 6 6 6 6 6 7 7 8 9 9 9 10 9 9 10 10 10 10 10 8 7 6 5 5 5 5 4 4 3 3 3 3 3 3 3 3 3 3 3 3 3 3 3 3 3 3 4 5 6 6 7 8 8 8 8 9 10 11 12 12 13 13 14 14 13 13 13 12 11 10 10 10 10 11
23 20 16 13 11 9 8 8 7 6 6 7 7 7 8 7 7 7 7 7 7 8 8 8 9 10 10 10 10 10 9 8 7 5 5 5 5 4 4 4 4 4 4 4 4 4 4 4 4 4 4 4 4 4 4 5 4 4 4 5 5 6 7 7 7 8 8 9 10 10 11 11 12 13 13 13 13 13 13 11 11 10 10 10 10
23 20 17 15 13 11 10 10 8 7 7 7 7 8 8 8 8 7 7 7 7 7 7 8 9 9 10 10 10 9 8 8 7 6 5 5 4 4 4 4 4 4 4 5 5 5 5 6 6 6 5 5 5 5 6 6 6 6 5 5 5 5 6 6 6 7 8 9 9 9 9 9 10 11 12 12 13 13 13 12 11 11 10 10 9
23 21 19 17 15 13 12 11 9 8 8 8 8 8 8 8 8 8 7 7 7 7 8 8 8 9 9 10 9 9 9 8 7 7 6 5 5 5 5 5 5 5 5 5 6 6 7 7 7 7 7 7 7 7 7 7 8 7 6 5 5 5 5 5 6 7 8 8 9 9 8 8 9 9 10 11 11 12 12 11 11 10 10 10 9
25 23 20 19 17 16 14 13 11 9 10 10 9 9 9 8 8 8 7 7 8 8 8 8 8 8 8 9 9 9 9 9 8 8 7 6 6 6 6 6 6 5 5 6 6 6 7 8 8 8 8 8 8 8 8 8 8 8 7 6 6 6 6 5 5 6 7 8 8 9 8 8 8 8 8 9 10 11 11 11 11 10 9 9 9
26 24 22 20 19 17 16 16 14 13 13 12 11 10 10 9 9 8 8 8 8 8 8 8 8 8 8 8 8 8 8 8 8 7 7 7 7 7 7 7 7 7 7 7 7 7 8 8 8 9 9 9 9 9 9 9 9 9 8 7 6 6 6 6 6 6 6 7 8 8 8 8 8 8 8 8 9 10 10 10 10 9 9 8 8
Wind_Direction
243 238 234 231 228 227 228 230 232 233 235 236 238 241 244 245 245 242 239 239 243 245 247 251 252 250 251 251 249 249 253 258 262 263 260 260 263 260 253 246 244 246 248 249 248 248 251 256 258 258 257 256 256 254 253 253 253 254 256 260 262 262 267 274 277 284 288 289 298 303 288 281 289 284 247 237 315 330 350 350 330 285 242 185 149
246 240 234 229 227 226 227 228 229 231 232 234 236 239 243 245 244 241 241 243 244 245 248 252 252 252 253 252 250 252 256 260 262 260 258 260 260 255 248 244 244 245 247 248 247 247 251 255 258 260 260 259 258 257 256 254 254 254 253 255 261 262 264 270 273 277 285 287 294 306 300 283 275 264 241 254 294 294 303 333 342 328 308 298 294
250 242 234 230 228 226 225 226 227 229 230 232 235 238 241 244 244 242 244 245 245 246 250 253 255 255 253 251 252 256 260 261 260 259 259 259 256 250 245 243 243 244 245 247 247 249 251 255 258 260 260 259 258 257 256 255 255 255 254 254 256 259 262 265 267 268 275 280 284 296 304 297 276 260 262 272 279 279 295 312 320 324 326 319 310
253 241 234 230 228 225 224 224 225 226 228 232 235 237 239 242 244 245 246 246 246 248 252 256 256 252 249 250 254 259 261 259 258 258 259 257 251 247 244 241 241 242 242 245 247 249 249 251 255 258 257 257 257 257 255 253 252 251 252 254 254 256 258 257 259 260 262 272 277 281 293 301 291 273 276 282 277 279 291 295 292 306 321 322 317
255 242 233 229 226 223 223 222 222 224 228 231 234 236 239 241 243 245 245 245 247 250 253 253 250 246 247 251 255 258 258 256 257 259 260 255 248 245 244 242 242 242 243 244 246 248 248 249 252 255 254 254 255 255 253 251 248 247 249 251 249 250 253 252 253 255 253 260 271 277 285 295 292 275 268 275 280 282 285 285 290 302 312 314 315
258 243 232 227 224 222 222 221 221 224 227 230 234 237 239 240 242 244 244 246 247 249 250 248 244 245 249 253 255 256 255 255 259 261 257 250 244 242 243 243 244 245 247 249 250 251 253 254 256 256 254 252 253 254 253 250 247 244 244 245 245 245 246 248 248 250 252 255 264 275 282 287 289 282 269 268 277 283 285 288 291 292 297 306 310
259 242 232 227 224 222 222 221 221 224 227 230 233 236 238 239 241 242 244 246 245 244 243 241 242 245 249 253 254 253 254 258 260 256 249 245 242 241 242 244 247 248 249 251 254 255 255 256 258 257 254 253 253 254 252 249 246 244 242 241 241 241 242 244 244 243 247 253 259 268 275 277 282 287 284 281 280 281 285 291 294 292 292 301 305
259 242 232 227 224 223 222 220 221 224 227 229 232 235 238 239 240 242 243 243 241 240 238 238 241 246 250 253 252 252 256 258 254 247 242 240 238 238 242 244 244 246 246 250 257 260 260 260 261 260 258 256 255 254 251 248 245 243 242 241 239 239 238 239 241 240 241 246 252 258 265 270 275 278 280 282 279 274 277 279 281 287 294 297 294
258 242 232 228 226 225 222 219 220 223 225 228 231 233 237 239 240 242 241 239 239 240 240 241 243 247 250 250 251 254 257 254 246 241 239 238 238 239 240 242 244 246 248 252 260 264 264 264 265 266 266 265 261 258 256 253 248 245 244 239 234 235 236 236 236 236 237 240 243 249 256 259 262 263 265 268 268 267 267 263 263 274 285 287 284
259 242 233 230 229 226 221 219 219 221 223 226 229 232 235 237 238 239 238 237 238 240 242 244 245 247 247 247 252 257 257 254 250 244 240 242 245 244 243 245 248 250 252 256 261 265 265 265 267 270 271 269 264 258 254 251 248 248 249 243 234 231 231 231 232 234 236 238 236 238 246 250 250 249 251 257 266 270 268 259 255 261 269 279 284
262 247 238 233 229 224 220 218 218 219 222 224 227 231 233 234 235 235 234 234 237 240 243 244 244 244 245 249 255 257 257 257 254 247 243 242 244 247 250 254 255 256 259 261 262 265 266 267 271 273 271 268 263 256 249 243 241 242 244 244 242 238 232 228 229 230 234 238 236 232 235 242 245 245 246 251 259 266 265 259 255 256 257 264 274
270 254 243 235 229 223 219 217 217 219 221 223 225 228 230 231 231 230 230 232 236 240 242 242 243 244 248 253 256 256 257 257 252 247 245 242 240 243 247 252 255 255 257 260 263 266 269 272 275 274 271 269 266 260 252 245 241 239 239 239 238 238 236 233 232 232 231 233 234 232 232 235 241 242 241 241 247 254 257 256 254 252 248 247 251
278 261 247 237 230 224 219 218 218 219 220 222 224 227 228 228 227 228 229 233 237 239 240 242 244 247 251 254 256 256 257 255 249 246 247 246 242 241 242 245 247 247 249 254 259 262 265 272 274 270 269 270 265 261 258 252 245 241 240 240 238 235 233 231 232 234 233 231 231 233 235 235 237 241 243 241 242 244 247 249 249 247 244 241 241
284 266 252 240 232 226 222 219 219 221 222 223 224 225 226 226 226 228 231 233 236 237 239 242 245 249 253 255 254 254 256 256 252 250 250 249 248 246 245 245 245 246 247 249 252 255 258 265 269 266 268 270 262 257 256 253 248 243 239 238 239 239 236 233 231 231 232 232 233 237 241 240 240 245 247 246 242 239 239 242 243 243 244 244 246
288 271 256 244 234 227 222 220 221 222 223 223 223 224 225 225 225 227 229 233 236 239 242 245 249 253 254 254 253 255 258 258 255 254 253 252 250 248 246 245 244 245 246 247 251 255 255 256 259 259 263 269 266 259 255 253 250 245 241 238 236 236 237 236 234 230 229 232 236 241 245 246 247 249 250 248 246 245 244 245 246 247 251 254 256
290 275 261 248 237 228 223 221 222 223 223 222 222 223 224 225 225 226 230 235 239 243 246 248 252 255 255 255 255 258 262 261 256 254 253 251 249 247 244 244 243 242 245 250 252 250 245 243 248 252 253 258 266 267 261 254 249 245 243 244 242 239 238 237 235 234 233 233 237 242 247 248 248 249 250 248 248 250 248 247 247 246 250 255 256
295 281 266 252 239 229 224 222 223 223 222 221 221 223 224 225 226 228 231 233 237 242 247 251 254 256 257 257 258 261 265 264 256 253 252 249 248 247 244 242 242 243 246 249 245 238 233 235 240 248 252 250 254 260 251 241 242 244 243 245 247 247 246 244 239 237 237 238 239 241 243 244 242 243 245 243 242 242 239 237 237 236 239 244 250
301 290 274 259 244 232 226 224 224 223 221 221 222 223 224 226 228 230 230 231 235 242 249 253 255 257 260 261 261 263 266 266 257 251 251 248 246 245 242 242 242 242 242 240 235 232 237 240 239 246 256 255 249 247 238 229 232 238 241 243 245 247 251 252 247 242 240 239 240 241 242 243 242 242 244 243 241 238 230 228 230 230 231 234 241
306 297 284 268 249 235 228 227 226 224 222 223 223 224 225 227 229 230 231 232 236 243 248 253 257 262 265 266 263 260 262 265 259 251 250 250 247 244 244 244 239 235 233 233 237 241 244 246 244 244 252 256 249 245 242 234 232 236 237 237 239 244 249 251 250 248 243 238 238 239 240 242 242 242 243 243 244 241 236 234 232 227 225 227 230
309 302 289 272 251 237 232 229 227 225 223 223 223 224 225 226 227 227 228 230 235 242 248 253 257 260 261 263 264 260 260 262 258 251 253 255 252 249 248 242 231 225 229 236 247 256 257 256 255 252 252 254 252 250 250 249 246 242 235 232 237 248 255 254 252 252 250 247 245 242 241 242 241 240 240 240 240 240 239 239 237 231 225 223 222
311 304 289 269 251 241 234 229 226 224 222 222 222 223 223 224 224 223 224 228 233 240 246 248 251 258 261 264 268 266 262 261 258 253 253 254 254 253 245 232 221 228 245 250 259 270 273 268 263 257 253 254 256 255 255 257 259 257 246 239 243 254 259 257 256 254 250 250 250 247 246 246 243 240 240 239 238 237 236 236 236 234 230 224 221
313 303 286 266 251 241 233 227 223 221 219 219 219 220 221 222 222 222 224 229 234 238 243 246 252 262 267 269 269 266 262 261 259 252 243 241 251 256 243 225 226 252 256 257 263 268 270 269 265 258 254 254 255 255 255 257 260 264 262 256 255 256 252 251 252 249 245 244 242 241 242 244 243 241 239 238 238 237 235 235 234 234 234 232 231
314 301 282 263 249 239 230 223 219 217 216 216 217 218 218 218 219 222 224 227 232 236 242 248 257 265 270 272 271 267 263 257 249 241 231 232 253 266 255 240 253 265 261 262 263 262 262 263 262 259 256 257 258 259 262 265 264 264 264 263 261 256 248 246 245 240 237 235 233 233 236 238 239 240 240 242 242 240 238 238 237 236 236 237 237
314 299 281 263 249 237 227 220 217 216 214 214 213 214 214 215 217 221 223 225 229 234 239 245 251 259 268 273 272 268 262 240 221 213 225 249 267 279 276 271 275 275 271 267 263 260 259 258 259 260 260 261 263 262 261 261 260 259 260 263 264 259 253 258 261 252 241 233 227 230 234 235 236 241 247 252 252 248 244 243 242 240 239 239 240
313 297 282 265 249 235 223 217 216 214 212 211 210 210 211 213 215 217 221 223 224 227 231 235 240 247 259 268 272 272 251 208 200 204 229 251 266 279 280 278 276 271 267 266 265 264 261 260 261 260 258 258 257 254 256 261 264 268 274 279 281 279 278 280 283 282 271 251 237 234 236 237 240 249 256 257 256 253 249 246 245 244 241 241 242
314 299 284 268 249 231 220 214 211 210 210 210 211 212 213 214 213 215 219 220 221 225 226 224 231 243 253 264 271 270 214 190 204 226 255 269 273 273 268 263 262 263 265 266 268 270 270 269 267 263 263 269 271 270 277 283 285 287 288 287 287 287 285 283 280 273 268 268 263 254 248 247 251 259 261 255 251 251 249 244 242 243 242 239 239
318 301 285 268 245 227 218 211 206 204 204 206 209 213 216 216 215 216 217 217 216 219 220 217 221 232 246 258 265 258 213 216 236 266 282 281 275 266 255 249 253 259 260 262 270 276 275 267 262 262 267 274 282 289 291 290 288 287 286 285 285 283 279 276 275 270 262 259 260 258 258 257 255 255 252 247 245 247 245 239 236 239 238 233 229
320 304 286 265 241 228 220 211 203 199 200 203 207 210 213 215 217 219 221 218 214 212 214 219 222 227 238 247 249 239 234 244 261 280 282 268 245 238 244 255 265 264 257 258 265 265 255 245 247 256 264 268 275 283 286 284 282 280 278 278 275 270 266 261 257 254 251 251 254 257 261 264 260 251 243 239 239 241 239 233 233 236 232 221 215
323 307 285 256 238 231 219 209 204 200 199 203 209 215 220 221 224 229 230 227 224 222 222 225 228 233 238 237 231 231 240 251 270 278 267 244 238 243 252 263 273 270 255 246 241 231 226 238 258 272 281 280 280 282 282 280 278 273 269 267 260 253 250 248 245 247 251 256 261 262 263 266 264 257 245 236 235 236 233 229 231 232 221 208 210
324 311 285 249 236 228 213 204 203 200 199 203 209 218 227 231 234 240 240 234 232 231 232 235 235 234 236 238 239 237 235 243 273 274 261 259 263 268 272 274 272 237 190 189 204 232 257 273 279 285 287 282 281 284 289 294 295 285 272 257 246 242 241 239 245 254 258 261 267 272 272 269 267 266 257 242 235 233 230 228 229 224 211 203 210
323 314 292 257 239 226 209 201 201 200 201 205 209 214 223 228 230 235 238 238 234 228 230 236 236 236 244 252 253 245 233 241 269 276 269 268 277 293 288 274 217 132 157 244 289 294 283 268 260 261 261 255 258 281 301 324 334 329 323 301 248 242 248 249 258 264 264 268 276 282 283 279 274 275 272 262 248 233 223 222 224 219 209 205 210
321 315 301 271 242 223 207 200 200 199 198 203 208 212 217 220 221 223 225 227 228 225 227 235 239 243 249 247 236 218 225 252 268 274 270 268 293 312 298 238 159 201 275 293 299 285 258 238 222 214 213 207 200 228 297 351 353 345 346 346 341 329 305 286 281 272 268 293 303 297 293 290 286 283 277 277 278 256 225 212 209 210 209 207 208
321 317 305 277 237 214 204 201 201 199 198 201 204 209 214 215 214 217 219 221 226 226 223 229 243 245 238 217 193 180 247 272 269 274 280 299 326 327 70 114 177 275 288 296 283 238 209 195 187 185 185 179 169 165 143 15 2 3 2 351 342 343 338 319 303 289 284 300 297 294 298 300 299 299 288 278 283 283 254 219 206 204 206 207 210
324 321 309 279 235 210 205 205 203 200 201 203 205 211 217 216 210 207 209 215 224 224 212 183 121 124 133 137 146 185 304 292 279 282 348 29 349 321 184 200 281 298 305 298 230 192 174 166 168 165 164 164 148 124 109 56 20 12 10 360 355 357 357 353 343 310 290 290 289 288 295 302 302 306 306 296 287 286 285 263 225 210 205 207 212
328 325 314 281 236 210 201 203 204 202 202 204 208 214 219 216 209 204 202 206 216 219 213 210 209 200 189 189 201 274 298 280 256 135 83 36 308 278 254 259 281 299 302 242 178 171 164 161 157 147 147 148 119 99 90 60 39 32 27 20 17 17 14 8 1 338 311 303 301 293 291 295 297 300 305 305 301 296 293 293 282 249 222 213 215
329 326 316 280 237 214 200 199 202 202 202 207 212 216 216 213 207 204 203 207 213 216 219 223 228 231 235 228 214 232 294 270 172 126 104 317 300 280 257 252 252 229 180 157 152 156 155 150 145 141 144 134 102 85 77 57 47 43 34 23 24 30 20 6 357 352 346 337 326 312 303 300 300 303 306 304 301 301 298 297 298 293 275 245 229
330 326 315 281 241 218 206 201 199 199 202 209 212 211 211 211 207 202 200 203 207 212 218 224 229 233 233 221 206 197 173 114 119 136 184 302 322 317 233 211 193 172 161 153 152 155 150 145 142 137 134 124 97 79 72 61 54 55 51 42 44 40 22 4 358 359 359 356 348 334 326 319 309 307 312 309 304 303 305 305 303 299 296 295 280
334 330 316 281 242 219 208 201 196 195 200 205 204 202 205 206 204 202 199 198 200 205 210 214 222 227 224 218 214 210 201 187 185 209 260 302 324 26 156 165 165 161 156 153 156 159 155 151 146 137 128 117 91 71 66 61 57 60 60 57 58 56 41 30 31 30 22 16 10 358 347 340 330 321 313 307 305 307 309 309 311 310 304 299 298
338 334 320 285 243 219 205 197 193 192 193 193 193 197 201 203 203 203 202 198 197 199 201 206 216 223 220 217 218 217 215 219 230 244 260 267 216 150 147 150 152 153 154 155 159 164 164 160 155 145 130 114 89 65 62 61 58 58 59 57 56 53 46 40 39 35 30 25 19 12 7 358 348 339 328 317 314 312 311 309 307 308 308 301 295
338 334 322 291 247 218 201 195 194 193 191 190 192 195 200 204 205 205 205 204 200 198 199 202 209 218 219 215 216 219 221 224 227 227 224 208 183 164 158 156 153 152 154 158 162 168 171 171 166 159 144 126 104 83 68 58 51 50 52 51 50 46 41 38 35 31 28 25 21 18 15 8 3 357 347 340 330 311 304 306 305 303 302 299 293
338 333 323 296 252 218 199 195 196 197 199 201 201 201 203 205 205 206 208 210 209 209 209 211 215 217 210 207 214 224 227 222 212 204 201 195 186 177 171 167 164 160 159 162 167 173 175 176 173 169 159 138 119 97 70 49 41 41 40 39 41 40 37 33 30 27 24 22 19 18 16 12 10 3 351 343 334 316 306 307 307 306 306 302 295
340 335 326 304 264 229 206 199 200 206 212 214 214 212 209 206 205 206 207 209 213 216 218 222 225 214 202 209 224 226 223 217 199 194 194 193 191 187 181 177 176 172 166 165 166 170 175 178 177 175 162 144 126 103 68 39 29 27 27 27 28 30 30 29 26 23 20 18 17 16 14 12 9 3 355 349 341 331 325 319 312 309 306 303 298
343 339 331 314 290 262 233 222 220 223 227 234 235 228 221 215 211 208 206 209 213 216 219 223 222 208 206 218 219 207 203 200 190 194 202 203 199 196 194 189 186 182 178 174 171 171 176 184 187 189 180 154 121 71 38 25 15 13 14 16 18 19 21 21 21 18 14 13 12 12 11 10 9 4 1 358 350 341 335 328 321 316 309 303 300
346 344 336 325 319 311 287 278 274 262 259 263 256 244 237 229 220 213 209 210 213 215 218 222 219 210 212 214 196 186 191 204 221 227 227 220 211 208 204 199 200 201 198 193 185 178 184 197 216 229 239 277 333 347 354 360 360 358 359 2 4 8 11 13 13 12 9 5 5 6 8 8 6 3 2 360 354 347 341 337 332 326 317 312 308
350 347 341 335 334 336 337 330 315 301 295 289 273 260 255 241 229 223 218 214 214 217 219 221 219 216 216 216 211 207 215 229 242 248 245 237 233 230 222 216 219 220 220 222 224 220 219 225 233 239 247 261 277 292 308 325 338 344 348 351 353 357 360 2 4 4 2 357 356 358 2 3 3 2 1 359 357 351 344 341 337 328 321 318 313
355 352 348 345 345 347 351 347 334 323 318 313 304 294 285 267 252 242 231 221 220 221 222 223 223 221 221 224 226 229 235 240 244 246 242 237 239 240 240 242 244 238 236 238 237 239 240 238 239 244 246 249 259 269 279 292 309 327 337 342 343 344 346 348 351 354 355 353 350 350 353 356 359 0 359 358 358 354 350 347 344 335 326 322 317
359 359 358 357 354 354 354 349 342 336 332 326 321 317 309 296 283 268 251 240 236 232 230 232 230 228 229 232 233 236 241 245 247 248 243 238 239 240 244 252 255 252 252 252 249 251 254 253 253 255 252 252 259 265 271 282 291 299 312 325 331 332 332 336 342 345 346 345 343 341 343 349 353 356 357 358 357 355 352 351 350 343 335 331 326
1 2 4 4 3 2 360 354 347 343 341 334 327 321 316 309 301 290 275 265 260 253 249 249 244 239 239 240 240 245 249 248 250 253 249 246 248 248 249 257 261 262 264 262 260 262 264 262 262 264 261 261 265 266 269 278 286 291 297 304 310 316 321 326 333 337 339 340 338 335 334 340 347 350 352 354 355 354 352 350 347 344 343 342 337
2 2 4 5 5 5 2 358 353 348 346 343 337 329 324 316 308 300 289 280 275 270 265 262 258 252 249 247 246 248 249 247 251 256 255 256 260 260 261 266 268 265 266 265 264 265 266 265 266 268 267 266 267 269 271 277 282 290 297 297 294 300 308 315 322 327 329 332 332 330 329 334 339 343 346 348 351 351 351 349 346 344 345 348 345
2 2 3 3 4 5 4 3 3 358 353 350 345 338 333 325 315 307 299 290 283 277 272 270 267 262 259 257 254 252 249 249 252 257 258 259 262 263 266 272 273 272 274 271 267 267 269 268 268 269 269 270 272 274 277 282 286 290 295 296 293 295 298 302 309 316 321 324 328 330 330 330 330 333 338 342 345 347 349 349 348 346 345 347 347
2 3 4 3 4 7 8 7 7 4 359 356 351 344 338 331 324 317 310 302 295 288 282 278 273 268 266 263 258 255 252 251 252 255 254 253 256 259 265 271 275 277 278 278 276 275 273 271 271 271 270 271 274 276 279 284 287 291 295 296 294 294 296 297 299 304 310 316 321 325 327 327 326 327 332 335 339 343 346 347 348 347 344 344 345
Height
745 745 745 745 745 745 747 749 751 753 755 757 758 760 761 762 763 763 764 764 765 766 767 768 768 768 769 769 769 770 770 770 770 770 770 770 770 769 770 770 770 770 771 771 771 772 772 772 772 773 775 775 775 776 777 777 778 778 778 777 777 778 778 778 776 775 774 771 767 766 767 767 767 766 766 765 765 765 765 764 765 765 765 766 767
741 740 741 741 740 740 741 744 746 749 751 752 754 755 756 758 760 760 760 760 761 762 763 764 765 765 766 766 766 767 767 767 767 767 767 767 767 767 767 767 767 767 768 768 768 769 769 769 769 770 772 772 772 773 774 774 775 776 776 776 776 776 776 776 776 775 774 772 768 766 765 766 766 765 765 764 764 764 764 765 765 765 765 766 767
737 737 738 737 736 737 737 739 741 744 746 748 749 751 753 754 756 756 757 757 757 758 759 761 761 762 763 763 763 764 764 764 764 764 764 764 764 764 764 764 764 764 764 765 765 766 766 766 766 768 769 769 769 770 770 771 772 773 773 774 775 775 775 775 775 774 774 772 770 768 766 764 764 764 763 763 763 763 764 764 765 765 765 765 766
734 734 733 733 733 734 734 735 737 739 742 743 745 747 749 750 751 752 753 753 754 755 755 757 758 758 759 759 760 760 761 761 761 761 761 761 761 761 761 761 761 761 761 761 762 763 763 763 763 764 766 766 766 766 767 768 768 769 770 771 772 772 773 773 773 773 772 771 770 769 768 765 763 763 762 761 762 762 763 764 764 764 764 765 765
730 729 729 729 730 730 730 731 732 734 737 739 741 744 746 747 748 749 749 750 751 751 752 753 754 755 755 756 757 757 757 758 757 758 758 758 758 758 758 758 758 758 758 758 759 760 760 760 760 762 763 763 762 762 763 764 764 765 766 767 768 769 770 770 770 770 770 770 768 767 767 766 764 763 763 762 762 762 763 763 763 763 763 763 764
726 725 725 726 726 726 727 727 728 730 733 735 737 740 742 743 744 745 745 746 747 747 748 749 750 751 752 752 753 754 754 754 754 754 755 755 755 755 755 755 755 755 755 755 756 757 757 757 757 758 759 759 759 759 759 760 761 761 762 763 765 766 767 767 767 767 767 767 767 765 765 764 763 762 762 762 763 762 762 762 762 762 762 762 762
723 721 721 721 721 721 722 722 724 726 729 731 734 736 738 739 740 741 742 742 743 744 744 745 746 747 748 749 750 750 751 751 751 751 751 751 752 752 752 752 752 752 752 752 752 753 753 753 753 754 755 755 755 755 756 757 757 758 758 759 761 762 764 764 765 765 765 765 765 764 763 762 761 760 760 760 761 761 761 760 760 760 761 761 761
720 719 718 718 717 717 717 718 720 723 725 728 730 732 734 735 736 737 738 739 740 740 741 742 743 744 745 745 746 747 747 747 748 748 748 748 749 749 749 749 749 749 749 749 749 749 749 750 750 750 751 751 751 751 752 753 754 754 754 756 757 759 760 761 762 763 763 763 762 762 761 760 760 759 758 758 758 759 759 759 759 759 759 759 760
718 716 715 714 713 713 714 716 718 720 722 724 726 729 730 732 732 733 734 735 736 737 738 739 740 740 741 742 743 743 744 744 744 744 744 745 745 746 746 746 746 746 746 746 746 746 746 746 746 746 746 747 747 748 748 749 749 750 750 752 753 755 756 758 759 760 760 760 760 760 759 758 758 757 756 756 756 756 757 758 758 758 758 758 758
715 713 711 710 710 712 713 714 715 717 719 720 722 725 726 728 729 729 731 732 733 734 735 736 737 737 738 739 739 740 740 739 740 741 741 742 742 742 743 743 743 743 743 743 743 743 743 743 743 743 743 743 743 744 745 745 746 746 746 747 749 751 753 754 755 756 757 757 757 757 757 755 755 755 755 754 754 755 755 756 756 757 757 757 757
712 709 707 707 708 709 710 711 712 713 715 717 719 721 723 724 725 726 727 728 729 731 732 733 734 734 735 735 735 736 735 735 736 737 738 739 739 739 739 740 740 740 740 740 740 740 740 739 739 739 739 740 740 740 741 742 743 743 743 744 745 746 748 750 751 752 753 753 753 754 753 753 753 753 753 753 753 753 754 754 754 754 755 755 754
709 706 705 705 705 707 707 708 709 710 712 714 716 718 720 721 722 723 724 725 726 728 729 730 730 731 732 732 732 732 731 731 732 734 735 736 737 737 736 737 737 737 737 737 736 736 736 736 736 735 735 736 736 737 737 738 739 740 741 741 742 742 743 744 746 747 748 749 749 749 750 750 751 751 751 752 752 752 752 752 752 752 753 753 752
706 704 704 703 703 703 704 705 706 707 709 711 713 715 717 718 718 719 721 722 723 724 725 726 727 728 728 728 728 728 727 728 729 730 731 732 733 734 734 734 734 734 734 734 733 733 733 732 732 732 732 733 733 733 734 735 736 737 738 739 739 739 739 740 740 741 743 744 745 745 746 747 747 747 748 750 750 750 751 751 751 751 750 750 750
705 702 701 701 701 701 702 703 704 705 707 709 711 712 714 715 715 716 718 719 720 721 722 723 724 724 725 725 725 724 723 724 726 727 728 729 730 731 731 731 731 731 731 731 730 730 730 730 729 729 729 730 730 730 731 731 732 733 735 735 736 736 736 736 737 738 738 740 740 740 741 743 743 743 745 747 747 748 748 748 749 749 748 748 748
702 700 698 698 698 699 700 701 702 704 705 707 708 710 711 712 713 714 716 717 717 719 719 720 721 721 722 722 721 720 720 721 722 723 724 725 726 727 728 728 728 727 727 727 727 727 727 727 727 727 727 727 727 727 728 728 729 730 731 731 731 732 732 733 733 735 736 736 736 736 737 738 739 740 742 743 744 745 746 747 747 748 747 747 746
700 698 696 695 696 697 698 699 700 702 703 704 706 707 708 709 710 711 713 714 715 716 717 717 718 718 718 718 718 717 716 717 719 719 720 721 722 723 724 724 724 724 723 723 723 724 724 724 724 724 724 724 724 725 725 726 726 727 727 728 728 728 728 728 730 732 733 733 733 733 734 735 736 737 738 739 741 742 743 744 744 745 746 744 743
698 696 694 693 694 694 695 696 698 699 700 701 703 704 705 707 708 709 710 711 712 713 714 714 714 715 715 715 714 713 712 713 715 715 717 718 719 720 720 720 720 720 720 720 720 720 721 721 721 721 721 722 722 722 723 723 723 724 724 724 725 725 724 725 727 728 729 730 731 731 731 732 733 734 734 736 737 738 740 740 741 742 742 741 741
695 693 692 691 691 692 692 694 695 696 697 698 699 702 703 704 705 706 707 708 710 710 711 712 712 712 712 711 711 711 709 710 711 712 713 715 716 716 717 717 717 716 716 717 717 717 718 718 719 719 719 719 719 720 721 721 721 721 721 721 721 721 720 721 723 724 725 726 727 727 728 729 730 731 732 732 734 735 735 735 736 738 738 738 739
692 690 688 687 688 688 689 690 691 692 693 695 697 699 701 702 703 704 705 706 707 708 709 709 709 709 709 708 709 708 707 707 708 709 710 711 712 713 713 713 713 713 713 714 714 715 715 716 716 716 716 717 717 717 718 718 717 717 717 718 718 717 716 718 719 719 721 722 722 723 724 724 726 727 728 729 730 731 731 731 732 734 734 735 737
690 687 684 684 684 684 685 686 687 689 690 692 695 697 698 700 701 702 703 703 704 705 706 706 706 706 706 706 706 706 705 705 705 706 707 708 709 710 710 710 710 710 711 712 712 713 713 713 713 713 714 714 714 714 714 715 714 714 714 714 714 713 713 715 715 716 717 717 718 719 720 720 721 723 724 725 726 727 727 728 728 729 730 732 733
687 684 681 680 680 680 681 682 684 686 688 690 692 694 696 697 698 699 700 701 702 703 703 704 704 704 704 704 704 703 703 702 702 703 704 705 706 707 707 707 707 708 709 709 710 710 710 710 710 710 710 711 711 711 711 711 712 712 711 710 710 710 711 712 712 713 714 714 714 715 716 716 717 718 719 720 721 721 722 723 724 725 726 728 729
685 681 679 677 676 676 677 678 680 683 685 687 689 691 693 695 695 696 698 699 700 700 701 702 702 702 702 701 701 701 700 700 700 700 701 702 703 704 704 705 705 706 706 707 707 707 707 707 707 707 707 708 708 708 708 708 709 708 708 707 707 708 709 709 709 710 710 710 711 711 712 712 713 713 714 715 715 716 716 718 719 721 722 723 725
682 679 676 674 673 673 673 675 678 679 682 684 686 689 691 692 693 694 695 696 698 698 699 700 700 699 699 699 698 698 698 698 698 698 699 700 701 701 702 702 703 704 704 704 705 705 705 705 705 705 705 705 705 705 705 705 705 705 705 705 705 705 705 705 705 706 706 706 707 707 707 708 708 709 709 709 710 711 712 714 715 717 718 719 721
679 676 673 671 671 670 671 673 675 677 679 682 684 686 688 689 691 691 693 694 695 696 697 697 698 698 697 697 696 696 696 696 696 696 697 698 699 699 699 700 701 701 701 702 702 702 702 702 702 703 703 703 702 702 702 701 701 701 701 701 701 701 701 701 702 702 703 703 703 703 704 704 705 705 704 704 705 707 709 710 711 712 714 715 716
677 674 671 669 668 669 670 671 672 675 677 679 681 684 685 687 688 689 690 692 693 694 695 695 696 696 695 695 695 694 694 694 695 695 696 697 697 698 698 698 699 699 699 699 700 700 700 700 700 700 700 700 699 699 698 698 698 698 698 698 698 698 699 699 700 700 700 701 701 701 701 701 701 701 701 702 703 704 705 706 707 708 710 711 712
675 672 669 667 667 667 668 669 671 673 675 677 679 681 683 684 685 686 688 689 690 691 692 693 694 694 694 693 693 693 693 693 694 694 695 695 695 696 696 697 697 697 698 697 697 698 698 698 697 697 697 696 696 696 696 696 696 696 696 696 696 696 697 697 697 697 698 698 699 699 699 699 699 699 699 700 700 701 701 702 703 704 706 707 708
674 670 667 666 665 665 666 668 669 671 673 675 678 680 681 682 683 684 685 686 687 689 690 690 692 692 692 692 692 692 692 692 693 693 693 693 693 693 694 694 695 695 695 695 695 695 695 695 695 695 695 695 694 694 694 694 694 694 694 694 694 694 694 694 694 695 695 695 696 696 696 696 696 696 696 696 697 697 698 699 700 700 701 703 705
672 668 665 664 664 663 664 666 667 669 671 673 675 677 678 679 680 681 681 682 684 686 687 688 689 690 690 691 691 691 691 691 691 691 691 691 691 691 691 692 692 692 693 693 693 693 693 693 693 693 693 693 692 692 692 692 692 692 691 691 691 691 692 692 692 692 692 692 693 693 693 693 693 693 693 693 693 693 694 696 696 697 698 700 701
670 666 663 662 662 661 663 664 665 667 669 671 673 674 675 676 677 678 679 680 682 683 684 685 686 687 688 689 689 690 690 690 690 690 689 689 689 689 689 689 689 690 689 689 690 691 691 691 691 691 691 691 691 691 690 690 690 690 689 689 689 689 690 690 690 690 690 690 690 690 690 690 690 690 690 689 689 690 691 692 693 694 696 697 698
668 664 662 661 660 660 661 662 664 666 668 670 672 673 673 675 675 676 677 679 680 682 683 683 684 686 687 687 687 688 688 688 689 688 688 688 688 687 688 688 688 687 687 687 688 689 689 689 689 689 689 689 689 689 689 688 688 688 688 688 687 688 688 688 688 688 688 688 688 688 688 688 687 687 687 686 686 687 687 689 690 691 693 694 694
667 662 660 658 657 658 659 660 662 664 666 668 670 671 672 673 674 675 676 677 679 680 681 682 683 684 684 684 685 686 687 687 687 687 687 686 686 686 687 687 687 686 686 686 687 687 688 688 687 688 688 688 688 688 688 688 687 687 687 686 686 686 686 686 686 686 686 686 687 686 686 686 685 685 685 684 684 683 684 685 686 688 689 690 691
666 661 658 656 655 656 657 659 660 662 664 666 668 669 671 672 673 674 675 677 678 679 680 681 682 682 682 682 683 685 686 686 686 686 685 685 685 686 686 685 685 684 685 686 686 686 686 686 686 687 687 686 687 687 686 687 687 686 686 686 685 685 685 685 685 685 685 685 685 685 685 684 684 683 683 682 682 681 681 681 682 683 685 686 687
664 659 655 654 653 654 655 657 659 660 662 664 666 667 668 669 670 672 674 676 677 678 679 680 680 680 680 681 682 683 684 684 684 684 684 684 684 685 684 683 683 684 684 685 685 685 686 686 686 686 686 686 686 686 686 686 685 685 685 685 684 684 684 683 683 683 683 684 683 683 683 683 682 682 681 680 680 679 678 678 678 679 681 682 683
662 657 654 652 652 652 654 655 657 659 661 662 664 665 666 667 669 670 672 674 675 676 677 678 677 678 679 680 681 683 683 683 684 683 683 683 684 684 683 682 682 683 684 684 685 685 685 686 686 686 686 686 685 685 685 685 684 684 684 684 684 683 683 682 682 682 682 682 682 681 681 681 681 680 680 679 678 677 677 676 676 676 677 678 679
659 655 652 651 651 651 652 654 656 657 659 661 662 663 664 666 668 669 670 672 673 674 675 676 676 677 678 679 681 682 683 683 683 682 682 682 683 683 682 681 682 682 683 683 684 685 685 686 686 686 687 686 685 685 684 684 684 683 683 683 683 682 682 682 681 681 681 680 680 680 680 680 679 679 678 677 677 676 675 675 674 674 674 674 675
658 654 651 650 650 651 652 653 655 656 658 660 661 663 664 665 666 668 669 670 671 672 674 675 676 677 678 679 681 682 682 682 682 681 681 681 681 681 681 680 681 682 682 683 684 684 685 685 686 686 686 686 686 685 684 683 683 683 682 682 682 682 681 681 681 680 680 679 679 679 679 678 678 677 677 676 676 675 674 674 673 673 672 672 672
658 654 652 650 650 651 652 653 655 656 658 659 661 662 664 665 666 667 668 669 670 672 673 674 675 676 677 678 680 681 681 681 680 680 680 680 680 680 679 680 680 681 682 683 684 684 685 685 685 686 686 686 686 685 684 683 683 682 682 682 682 681 681 681 680 679 679 679 678 678 677 677 677 676 676 675 675 674 673 673 672 672 671 671 670
658 655 652 651 651 651 652 654 655 656 657 659 660 662 663 664 665 666 667 668 670 671 672 673 674 675 676 677 678 679 680 680 679 679 679 680 680 680 679 679 680 681 681 682 683 684 685 685 685 685 685 685 685 685 684 683 683 682 682 682 682 681 681 680 680 679 678 678 678 677 677 676 676 675 675 674 674 673 673 672 672 671 670 670 670
659 656 654 653 652 652 653 654 655 656 657 659 660 662 663 664 665 666 666 667 669 670 671 672 673 674 675 676 677 678 679 679 679 679 679 679 679 680 679 680 680 681 681 682 683 684 685 685 685 685 685 684 684 684 684 684 683 683 682 682 681 681 681 680 679 679 678 677 677 676 676 675 675 674 674 673 673 672 672 671 671 670 670 669 669
661 658 656 655 654 654 654 655 656 657 658 659 660 662 663 664 665 665 666 667 668 669 671 672 673 674 675 676 676 677 678 678 678 678 679 679 679 679 679 680 680 680 681 682 682 683 684 684 684 684 684 684 684 684 684 684 683 683 682 682 681 681 680 679 679 678 678 677 676 676 675 674 673 673 673 672 672 672 671 671 670 669 669 668 668
663 660 659 657 656 656 656 657 657 659 660 660 661 662 662 664 665 665 666 667 668 669 670 671 672 673 674 675 676 677 677 677 677 678 678 679 679 679 679 680 680 680 681 681 682 683 683 684 684 684 683 683 683 683 683 683 683 683 682 682 681 681 680 679 679 678 677 676 676 675 674 673 673 672 672 672 671 671 670 670 669 668 668 667 667
666 663 661 660 659 659 659 659 659 660 661 662 662 663 663 664 665 665 666 667 667 668 669 670 672 673 674 675 675 676 676 677 677 677 678 678 678 679 679 679 680 680 680 681 682 682 683 683 683 683 683 683 682 683 683 683 683 683 682 682 681 680 680 679 678 677 677 676 675 674 674 673 672 672 671 671 670 670 669 669 668 667 667 666 666
668 666 664 663 662 662 662 662 662 662 662 663 664 664 664 665 665 665 665 666 667 668 669 670 671 672 673 674 674 674 675 676 676 677 678 678 678 679 679 679 680 680 680 681 681 682 682 683 683 683 683 682 682 682 682 682 682 682 682 681 681 680 679 679 678 677 676 676 675 674 673 673 672 671 671 670 669 669 668 667 667 666 666 665 665
670 668 666 665 664 664 664 664 665 665 664 664 665 665 665 665 665 666 666 666 667 668 669 669 671 672 672 673 674 674 675 676 676 677 677 678 678 679 679 679 679 680 680 680 681 681 681 682 682 682 682 682 682 681 681 681 681 681 681 681 680 680 679 678 677 677 676 675 675 674 673 672 672 671 670 669 669 668 667 666 666 665 665 664 664
672 670 669 667 667 666 666 666 667 667 666 666 666 666 666 666 666 666 667 667 668 668 669 670 671 672 672 673 674 674 675 676 676 677 677 677 678 678 679 679 679 679 680 680 680 680 681 681 682 682 682 681 681 681 681 681 681 680 680 680 680 679 678 678 677 676 676 675 674 673 672 672 671 670 670 669 668 667 666 665 665 664 664 663 662
674 672 671 670 669 668 668 668 667 668 668 668 667 667 667 667 667 667 667 667 668 668 669 670 671 671 672 673 674 674 675 676 676 677 677 677 678 678 678 679 679 679 679 679 680 680 680 681 681 681 681 681 681 681 680 680 680 680 680 679 679 678 678 677 676 676 675 674 674 673 672 672 671 670 669 668 667 666 665 665 664 663 663 662 661
677 675 673 672 671 670 669 668 668 668 668 668 668 668 668 668 668 668 667 668 668 668 669 670 670 671 672 672 673 674 675 675 676 676 676 677 677 678 678 678 678 678 679 679 679 679 679 679 680 680 680 680 680 680 679 679 679 679 679 679 678 677 677 676 676 675 675 674 673 673 672 671 670 669 668 668 666 665 665 664 663 662 661 660 660
680 678 676 674 673 671 670 670 669 668 668 668 668 668 668 668 668 668 668 668 669 669 669 670 670 670 671 672 672 673 674 674 675 676 676 676 677 677 677 677 678 677 678 678 678 678 678 678 678 679 679 678 679 678 678 678 678 678 678 678 677 676 676 676 675 674 674 673 673 672 671 670 669 669 668 667 666 665 664 663 662 661 660 659 659
684 681 679 677 675 674 673 672 670 670 670 669 668 668 667 667 667 667 668 668 668 668 669 669 669 670 670 671 671 672 673 673 674 674 675 675 676 676 676 676 677 676 677 677 677 677 677 677 677 677 677 677 677 677 677 677 677 676 676 676 676 675 675 674 674 673 673 672 672 671 670 669 669 668 667 666 665 665 664 662 661 660 659 658 658
687 685 682 680 679 677 675 674 673 672 671 670 669 669 668 668 667 667 667 667 667 667 668 668 668 669 670 670 670 671 672 672 673 673 674 674 674 675 675 675 675 675 675 675 675 675 676 676 676 676 675 675 675 675 675 675 675 675 674 674 674 674 673 673 673 672 672 671 670 669 669 668 668 667 666 666 665 664 663 662 661 660 659 658 657
690 687 685 683 681 679 678 676 675 674 672 672 671 670 669 669 668 668 667 667 667 667 667 667 668 668 668 669 669 670 670 671 672 672 672 673 673 673 673 673 674 674 674 674 674 674 674 674 674 674 674 674 673 673 673 673 673 673 673 672 672 672 672 671 671 671 670 670 669 668 668 667 666 666 665 665 664 663 663 662 661 660 659 658 657